Simultaneous Nadir Overpasses (SNOs) Predictions

Prediction of SNOs over PacNW region [( 10.00, 139.50) to ( 22.70, 165.60)] between AQUA and NPP Satellites:

Table of predicted SNOs over PacNW region for the next 30.0 days since TLE Epoch: 6/1/2019
Index Date (AQUA) Time (AQUA) AQUA Lat,Lon Date (NPP) Time (NPP) NPP Lat,Lon Distance(km) Time Diff (sec)
1 06/02/2019 03:31:49 22.64, 147.53 06/02/2019 03:28:20 26.16, 144.85 476.73 209
2 06/07/2019 15:59:24 22.62, 147.49 06/07/2019 16:01:51 23.31, 144.55 310.01 147
3 06/15/2019 15:09:55 22.62, 159.85 06/15/2019 15:11:11 23.19, 157.20 278.50 76
4 06/18/2019 03:31:45 22.66, 147.53 06/18/2019 03:28:16 25.52, 144.99 409.98 209
5 06/23/2019 15:59:19 22.59, 147.49 06/23/2019 16:01:58 23.23, 144.52 312.25 159




NCC Satellite Simultaneous Nadir Overpasses (SNOs) Prediction Service
